Weather History for Savannah, GA

Change the Weather History Date:

Sunday, July 6, 2014

  Actual Average Record
Temperature  
Mean Temperature 80 °F 82 °F  
Max Temperature 87 °F 92 °F 102 °F (1980)
Min Temperature 73 °F 72 °F 64 °F (1964)
Degree Days  
Heating Degree Days 0 0  
Month to date heating degree days 0 0  
Since 1 June heating degree days 0 0  
Since 1 July heating degree days 0 0  
Cooling Degree Days 15 17  
Month to date cooling degree days 108 102  
Year to date cooling degree days 1088 951  
Since 1 June cooling degree days 599 548  
Growing Degree Days 30 (Base 50)    
Moisture  
Dew Point 71 °F    
Average Humidity 75    
Maximum Humidity 93    
Minimum Humidity 57    
Precipitation  
Precipitation 0.01 in 0.17 in 3.15 in (1987)
Month to date precipitation 0.01 1.00  
Year to date precipitation 27.44 23.21  
Sea Level Pressure  
Sea Level Pressure 30.09 in    
Wind  
Wind Speed 5 mph (ENE)    
Max Wind Speed 14 mph    
Max Gust Speed 17 mph    
Visibility 10 miles    
Events Rain    
T = Trace of Precipitation, MM = Missing Value Source: NWS Daily Summary

Daily Weather History Graph

Daily Weather History Graph

Search for Another Location

Airport:

Trip Planner

Search our weather history database for the weather conditions in past years. The results will help you decide how hot, cold, wet, or windy it might be!

Date:

Astronomy

Jul. 06, 2014 Rise Set
Actual Time 6:24 AM EDT 8:34 PM EDT
Civil Twilight 5:56 AM EDT 9:02 PM EDT
Nautical Twilight 5:21 AM EDT 9:36 PM EDT
Astronomical Twilight 4:45 AM EDT 10:13 PM EDT
Moon 2:45 PM EDT (7/6) 1:28 AM EDT (7/6)
Length of Visible Light 15h 06m
Length of Day
14h 10m
Waxing Gibbous, 62% of the Moon is Illuminated
Jul 6
Waxing Gibbous
Jul 12
Full
Jul 18
Last Quarter
Jul 26
New
Aug 3
First Quarter

Hourly Weather History & Observations

Time (EDT) Temp. Heat Index Dew Point Humidity Pressure Visibility Wind Dir Wind Speed Gust Speed Precip Events Conditions
12:53 AM 75.9 °F - 72.0 °F 87% 30.13 in 10.0 mi NNE 5.8 mph - 0.00 in Rain Light Rain
1:53 AM 75.9 °F - 72.0 °F 87% 30.10 in 10.0 mi NE 4.6 mph - 0.00 in   Partly Cloudy
2:49 AM 75.2 °F - 71.6 °F 89% 30.09 in 9.0 mi WNW 3.5 mph - N/A   Mostly Cloudy
2:53 AM 75.0 °F - 72.0 °F 90% 30.09 in 9.0 mi NW 3.5 mph - N/A   Mostly Cloudy
3:18 AM 75.2 °F - 71.6 °F 89% 30.08 in 9.0 mi NW 4.6 mph - N/A   Scattered Clouds
3:53 AM 73.9 °F - 71.1 °F 91% 30.08 in 9.0 mi North 4.6 mph - N/A   Mostly Cloudy
4:09 AM 73.4 °F - 71.6 °F 94% 30.08 in 9.0 mi NNE 3.5 mph - N/A   Scattered Clouds
4:53 AM 73.0 °F - 71.1 °F 93% 30.09 in 10.0 mi Calm Calm - N/A   Clear
5:19 AM 73.4 °F - 71.6 °F 94% 30.09 in 10.0 mi NNW 4.6 mph - N/A   Mostly Cloudy
5:29 AM 73.4 °F - 71.6 °F 94% 30.09 in 10.0 mi Calm Calm - N/A   Mostly Cloudy
5:36 AM 73.4 °F - 71.6 °F 94% 30.09 in 10.0 mi Calm Calm - N/A   Mostly Cloudy
5:43 AM 73.4 °F - 71.6 °F 94% 30.09 in 10.0 mi Calm Calm - N/A   Mostly Cloudy
5:53 AM 73.9 °F - 70.0 °F 87% 30.09 in 10.0 mi Calm Calm - N/A   Mostly Cloudy
6:53 AM 73.0 °F - 70.0 °F 90% 30.10 in 8.0 mi Calm Calm - N/A   Mostly Cloudy
7:53 AM 75.0 °F - 71.1 °F 87% 30.11 in 9.0 mi Calm Calm - N/A   Mostly Cloudy
8:53 AM 77.0 °F - 72.0 °F 84% 30.12 in 10.0 mi North 5.8 mph - N/A   Mostly Cloudy
9:53 AM 80.1 °F 84.2 °F 73.0 °F 79% 30.13 in 10.0 mi Calm Calm - N/A   Mostly Cloudy
10:53 AM 81.0 °F 85.2 °F 72.0 °F 74% 30.13 in 10.0 mi North 3.5 mph - N/A   Mostly Cloudy
11:53 AM 77.0 °F - 72.0 °F 84% 30.13 in 10.0 mi Calm Calm - 0.01 in   Mostly Cloudy
12:53 PM 80.1 °F 84.2 °F 73.0 °F 79% 30.11 in 10.0 mi East 5.8 mph - 0.00 in   Mostly Cloudy
1:53 PM 82.9 °F 88.0 °F 72.0 °F 69% 30.10 in 10.0 mi ESE 9.2 mph - N/A   Mostly Cloudy
2:53 PM 84.9 °F 88.8 °F 69.1 °F 59% 30.08 in 10.0 mi East 8.1 mph - N/A   Mostly Cloudy
3:53 PM 84.9 °F 89.4 °F 70.0 °F 61% 30.07 in 10.0 mi East 10.4 mph - N/A   Mostly Cloudy
4:53 PM 86.0 °F 90.1 °F 69.1 °F 57% 30.05 in 10.0 mi ESE 12.7 mph - N/A   Mostly Cloudy
5:53 PM 84.9 °F 88.8 °F 69.1 °F 59% 30.05 in 10.0 mi ESE 10.4 mph - N/A   Mostly Cloudy
6:26 PM 82.4 °F 86.3 °F 69.8 °F 66% 30.05 in 10.0 mi SSE 11.5 mph - N/A   Mostly Cloudy
6:53 PM 82.9 °F 87.0 °F 70.0 °F 65% 30.05 in 10.0 mi SSE 12.7 mph - N/A   Mostly Cloudy
7:53 PM 81.0 °F 84.9 °F 71.1 °F 72% 30.06 in 10.0 mi SE 9.2 mph - N/A   Mostly Cloudy
8:53 PM 79.0 °F - 71.1 °F 77% 30.06 in 10.0 mi SE 9.2 mph - N/A   Mostly Cloudy
9:53 PM 78.1 °F - 71.1 °F 79% 30.08 in 10.0 mi SE 4.6 mph - N/A   Partly Cloudy
10:53 PM 77.0 °F - 71.1 °F 82% 30.07 in 10.0 mi South 4.6 mph - N/A   Partly Cloudy
11:53 PM 75.0 °F - 71.1 °F 87% 30.06 in 10.0 mi Calm Calm - N/A   Clear